Weather Roundup
Issued by NWS Chicago, IL

Home | Current Version | Previous Version | Graphics & Text | Print | Product List | Glossary On
Versions: 1 2 3 4 5 6 7 8 9 10 11 12 13 14 15 16 17 18 19 20 21 22 23 24 25 26 27 28 29 30 31 32 33 34 35 36 37 38 39 40 41 42 43 44 45 46 47 48 49 50
599
NZUS59 KLOT 242003
HRRLOT

CHICAGO AREA WEATHER ROUNDUP
NATIONAL WEATHER SERVICE CHICAGO/ROMEOVILLE IL
300 PM CDT FRI MAR 24 2017

NOTE: "FAIR" INDICATES FEW OR NO CLOUDS BELOW 12,000 FEET WITH NO
SIGNIFICANT WEATHER AND/OR OBSTRUCTIONS TO VISIBILITY.

* THESE STATIONS ARE NOT UNDER NWS QUALITY CONTROL. THEY ALSO MAY NOT
  REPORT WEATHER SUCH AS PRECIPITATION OR FOG.

ILZ005-006-012>014-019>023-242100-
NORTHEAST ILLINOIS

CITY           SKY/WX    TMP DP  RH WIND       PRES   REMARKS
OHARE          PTSUNNY   80  43  26 SW20G28   29.88S
MIDWAY         PTSUNNY   81  47  30 W23G33    29.89F HX  80
AURORA         SUNNY     81  42  25 W23G39    29.88F
LANSING*       MOSUNNY   79  52  38 SW23G35   29.91S
JOLIET*        SUNNY     81  47  30 SW13G28   29.90F HX  80
WAUKEGAN       CLOUDY    79  46  31 W9G20     29.87R
DUPAGE AIRPORT SUNNY     79  44  28 SW20G32   29.88F
WHEELING       SUNNY     80  43  26 W21G29    29.89S
MORRIS*        MOSUNNY   80  47  32 SW22G29   29.89F
NORTHERLY ISL    N/A     79  40  24 S14         N/A
$$

WIZ051-052-058>065-066-070>072-242100-
SOUTHEAST WISCONSIN

CITY           SKY/WX    TMP DP  RH WIND       PRES   REMARKS
MILWAUKEE      CLOUDY    45  36  70 NE16G28   29.94R
KENOSHA*       CLOUDY    56  44  64 NE20G28   29.90R
RACINE*        PTSUNNY   47  39  74 N17       29.95R
WAUKESHA       MOSUNNY   63  48  59 E13       29.90F
WEST BEND      MOSUNNY   50  43  76 E10       29.94R
$$

INZ001>003-010>013-019-020-242100-
NORTHWEST INDIANA

CITY           SKY/WX    TMP DP  RH WIND       PRES   REMARKS
GARY*          MOSUNNY   82  36  18 SW24G41   29.90F HX  80
MICHIGAN CITY* NOT AVBL
RENSSELAER*    NOT AVBL
VALPARAISO     MOSUNNY   81  52  36 SW25G36   29.93F HX  80
$$

LMZ740>746-242100-
SOUTHERN LAKE MICHIGAN

STATION/POSITION TIME  SKY/WX   TEMP WIND        PRES    VSBY
                                AIR  DIR/SP/G
                 (UTC)          (F)  (DEG/KT/KT) (MB)    (MI)
HARRISON CRIB    1940            78  250/ 24/ 29   N/A
BURNHAM HARBOR   2000            78  250/ 10/ 20   N/A
CALUMET HARBOR   1930            78  210/ 18/ 26 1011.7F
BURNS HARBOR     1940            74  230/ 21/ 31 1012.9F
MICHIGAN CITY    1940            73  220/ 22/ 24   N/A
$$

ABBREVIATIONS USED IN REMARKS
   TC - TEMPERATURE IN CELSIUS
  WCI - WIND CHILL INDEX
   HX - HEAT INDEX
  VSB - VISIBILITY
$$




USA.gov is the U.S. government's official web portal to all federal, state and local government web resources and services.